Home   Weather   McAllen   Past weeks
Flag for USA

Past Weather in McAllen, Texas, USA — Yesterday and Last 2 Weeks

Now
81 °F

Passing clouds.


Feels Like: 88 °F
Forecast: 99 / 83 °F
Wind: 6 mph from Southeast

Location: Miller International Airport

Current Time: Jul 17, 2019 at 5:57:19 am

Latest Report: Jul 17, 2019 at 4:53 am


Visibility: 10 mi

Pressure: 29.96 "Hg

Humidity: 88%

Dew Point: 77 °F

Location of McAllenLocation

Past Weather in McAllen — Graph

°F

McAllen Temperature Yesterday

Maximum temperature yesterday: 96 °F (at 2:53 pm)
Minimum temperature yesterday: 81 °F (at 3:53 am)
Average temperature yesterday: 86 °F

High & Low Weather Summary for the Past Weeks

 TemperatureHumidityPressure
High100 °F (Jul 13, 5:53 pm)91% (Jul 12, 1:22 am)30.04 "Hg (Jul 12, 1:22 am)
Low74 °F (Jul 12, 1:22 am)32% (Jul 11, 2:53 pm)29.73 "Hg (Jul 12, 5:53 pm)
Average86 °F69%29.90 "Hg
* Reported Jul 2 4:36 am — Jul 17 4:53 am, McAllen. Weather by CustomWeather, © 2019

Note: Actual official high and low records may vary slightly from our data, if they occured in-between our weather recording intervals... More about our weather records

Advertising

McAllen Weather History for the Previous 24 Hours

Scroll right to see more
 ConditionsComfort  
Time TempWeatherWind HumidityBarometerVisibility
4:53 am
Wed, Jul 17
81 °FPassing clouds.6 mph88%29.96 "Hg10 mi
3:53 am81 °FPassing clouds.9 mph88%29.96 "Hg10 mi
2:53 am82 °FClear.13 mph85%29.96 "Hg10 mi
1:53 am82 °FClear.12 mph85%29.97 "Hg10 mi
12:53 am83 °FClear.13 mph82%29.97 "Hg10 mi
11:53 pm
Tue, Jul 16
83 °FClear.13 mph79%29.97 "Hg10 mi
10:53 pm83 °FPassing clouds.14 mph77%29.95 "Hg10 mi
9:53 pm85 °FClear.13 mph70%29.92 "Hg10 mi
8:53 pm86 °FClear.14 mph65%29.91 "Hg10 mi
7:53 pm89 °FSunny.20 mph59%29.90 "Hg10 mi
6:53 pm92 °FPassing clouds.18 mph54%29.90 "Hg10 mi
5:53 pm94 °FSunny.21 mph46%29.89 "Hg10 mi
4:53 pm95 °FSunny.17 mph46%29.90 "Hg10 mi
3:53 pm95 °FPassing clouds.18 mph47%29.92 "Hg10 mi
2:53 pm96 °FPassing clouds.20 mph47%29.94 "Hg10 mi
1:53 pm93 °FScattered clouds.18 mph52%29.96 "Hg10 mi
12:53 pm93 °FScattered clouds.20 mph56%29.97 "Hg10 mi
12:00 pm92 °FBroken clouds.18 mph56%29.98 "Hg10 mi
10:53 am89 °FPartly sunny.16 mph63%29.96 "Hg10 mi
10:29 am90 °FPartly sunny.21 mph63%29.97 "Hg10 mi
9:53 am87 °FScattered clouds.17 mph69%29.96 "Hg10 mi
8:53 am85 °FPassing clouds.15 mph77%29.95 "Hg10 mi
7:53 am82 °FSunny.10 mph85%29.94 "Hg10 mi
7:08 am81 °FSunny.10 mph91%29.94 "Hg9 mi
6:53 am81 °FScattered clouds.10 mph91%29.93 "Hg9 mi
6:12 am81 °FMostly cloudy.10 mph91%29.93 "Hg10 mi
5:53 am81 °FMostly cloudy.7 mph91%29.93 "Hg10 mi
5:22 am82 °FOvercast.8 mph88%29.93 "Hg10 mi
Weather by CustomWeather, © 2019

See weather overview